• In Uzbekistan
  • List of Countries
  • For 7 days
  • Water Temperature
  • Satellite Maps
  • Weather Map
  • Weather Widgets
  • user-avatar
    Login

    Hourly Weather Borzhomi

    Today, 21 February, Wednesday

    Time Temperature Precipitation Wind Pressure Humidity
    00:00 +2°C° 0 mm 1 mps 664 mmHg 70%
    01:00 +2°C° 0 mm 1 mps 664 mmHg 71%
    02:00 -1°C° 0 mm 2 mps 664 mmHg 72%
    03:00 -1°C° 0 mm 2 mps 664 mmHg 73%
    04:00 -1°C° 0 mm 2 mps 664 mmHg 73%
    05:00 -1°C° 0 mm 2 mps 664 mmHg 73%
    06:00 -2°C° 0 mm 2 mps 664 mmHg 73%
    07:00 -1°C° 0 mm 2 mps 664 mmHg 71%
    08:00 +2°C° 0 mm 2 mps 664 mmHg 69%
    09:00 +3°C° 0 mm 2 mps 664 mmHg 67%
    10:00 +4°C° 0 mm 2 mps 664 mmHg 65%
    11:00 +5°C° 0 mm 2 mps 664 mmHg 63%
    12:00 +6°C° 0 mm 2 mps 664 mmHg 61%
    13:00 +7°C° 0 mm 2 mps 664 mmHg 61%
    14:00 +7°C° 0 mm 2 mps 664 mmHg 61%
    15:00 +7°C° 0 mm 2 mps 663 mmHg 61%
    16:00 +6°C° 0 mm 2 mps 663 mmHg 65%
    17:00 +5°C° 0 mm 2 mps 663 mmHg 68%
    18:00 +4°C° 0 mm 2 mps 663 mmHg 72%
    19:00 +3°C° 0 mm 2 mps 663 mmHg 72%
    20:00 +3°C° 0 mm 2 mps 664 mmHg 73%
    21:00 +2°C° 0 mm 2 mps 664 mmHg 74%
    22:00 +2°C° 0 mm 2 mps 664 mmHg 74%
    23:00 +2°C° 0 mm 2 mps 664 mmHg 74%

    Tomorrow, 22 February, Thursday

    Time Temperature Precipitation Wind Pressure Humidity
    00:00 +1°C° 0 mm 2 mps 664 mmHg 74%
    01:00 +1°C° 0 mm 2 mps 664 mmHg 74%
    02:00 +1°C° 0 mm 2 mps 664 mmHg 74%
    03:00 +1°C° 0 mm 2 mps 664 mmHg 74%
    04:00 +1°C° 0 mm 2 mps 663 mmHg 74%
    05:00 -1°C° 0 mm 2 mps 663 mmHg 74%
    06:00 -1°C° 0 mm 2 mps 663 mmHg 74%
    07:00 +1°C° 0 mm 2 mps 663 mmHg 71%
    08:00 +2°C° 0 mm 2 mps 663 mmHg 69%
    09:00 +3°C° 0 mm 2 mps 663 mmHg 66%
    10:00 +5°C° 0 mm 2 mps 663 mmHg 64%
    11:00 +6°C° 0 mm 2 mps 663 mmHg 61%
    12:00 +7°C° 0 mm 2 mps 663 mmHg 59%
    13:00 +8°C° 0 mm 2 mps 663 mmHg 59%
    14:00 +8°C° 0 mm 2 mps 663 mmHg 58%
    15:00 +8°C° 0 mm 2 mps 663 mmHg 58%
    16:00 +8°C° 0 mm 1 mps 663 mmHg 62%
    17:00 +7°C° 0 mm 1 mps 663 mmHg 66%
    18:00 +6°C° 0 mm 1 mps 662 mmHg 70%
    19:00 +5°C° 0 mm 1 mps 663 mmHg 71%
    20:00 +4°C° 0 mm 1 mps 663 mmHg 71%
    21:00 +4°C° 0 mm 1 mps 663 mmHg 72%
    22:00 +3°C° 0 mm 2 mps 663 mmHg 72%
    23:00 +2°C° 0 mm 2 mps 663 mmHg 71%

    Day after tomorrow, 23 February, Friday

    Time Temperature Precipitation Wind Pressure Humidity
    00:00 +2°C° 0 mm 2 mps 663 mmHg 71%
    01:00 +2°C° 0 mm 2 mps 663 mmHg 70%
    02:00 +1°C° 0 mm 2 mps 663 mmHg 70%
    03:00 +1°C° 0 mm 2 mps 662 mmHg 70%
    04:00 +1°C° 0 mm 2 mps 662 mmHg 69%
    05:00 +1°C° 0 mm 2 mps 662 mmHg 69%
    06:00 +1°C° 0 mm 2 mps 662 mmHg 68%
    07:00 +2°C° 0 mm 2 mps 662 mmHg 65%
    08:00 +3°C° 0 mm 2 mps 663 mmHg 63%
    09:00 +4°C° 0 mm 2 mps 663 mmHg 60%
    10:00 +6°C° 0 mm 2 mps 663 mmHg 58%
    11:00 +7°C° 0 mm 2 mps 663 mmHg 55%
    12:00 +8°C° 0 mm 2 mps 663 mmHg 53%
    13:00 +9°C° 0 mm 2 mps 662 mmHg 53%
    14:00 +9°C° 0 mm 2 mps 662 mmHg 53%
    15:00 +9°C° 0 mm 2 mps 662 mmHg 53%
    16:00 +9°C° 0 mm 1 mps 662 mmHg 58%
    17:00 +7°C° 0 mm 1 mps 661 mmHg 63%
    18:00 +6°C° 0 mm 1 mps 661 mmHg 67%
    19:00 +5°C° 0 mm 1 mps 662 mmHg 69%
    20:00 +5°C° 0 mm 1 mps 662 mmHg 71%
    21:00 +4°C° 0 mm 1 mps 662 mmHg 72%
    22:00 +4°C° 0 mm 1 mps 662 mmHg 74%
    23:00 +4°C° 0 mm 1 mps 662 mmHg 75%

    24 February, Saturday

    Time Temperature Precipitation Wind Pressure Humidity
    00:00 +3°C° 0 mm 0 mps 662 mmHg 76%
    01:00 +3°C° 0 mm 1 mps 662 mmHg 77%
    02:00 +3°C° 0 mm 1 mps 662 mmHg 79%
    03:00 +3°C° 0 mm 1 mps 662 mmHg 81%
    04:00 +2°C° 0 mm 1 mps 662 mmHg 82%
    05:00 +2°C° 0 mm 1 mps 662 mmHg 83%
    06:00 +2°C° 0 mm 1 mps 662 mmHg 84%
    07:00 +3°C° 0 mm 1 mps 662 mmHg 80%
    08:00 +3°C° 0 mm 1 mps 662 mmHg 76%
    09:00 +4°C° 0 mm 1 mps 662 mmHg 72%
    10:00 +4°C° 0 mm 2 mps 662 mmHg 69%
    11:00 +5°C° 0 mm 2 mps 662 mmHg 66%
    12:00 +6°C° 0 mm 2 mps 662 mmHg 63%
    13:00 +6°C° 0 mm 2 mps 661 mmHg 64%
    14:00 +6°C° 0 mm 2 mps 661 mmHg 65%
    15:00 +6°C° 0 mm 2 mps 661 mmHg 67%
    16:00 +5°C° 0 mm 2 mps 661 mmHg 72%
    17:00 +4°C° 0 mm 2 mps 661 mmHg 77%
    18:00 +4°C° 0 mm 1 mps 661 mmHg 82%
    19:00 +4°C° 0 mm 1 mps 661 mmHg 83%
    20:00 +3°C° 0 mm 1 mps 661 mmHg 85%
    21:00 +3°C° 0 mm 1 mps 661 mmHg 86%
    22:00 +2°C° 0 mm 1 mps 661 mmHg 84%
    23:00 +2°C° 0 mm 1 mps 661 mmHg 82%

    25 February, Sunday

    Time Temperature Precipitation Wind Pressure Humidity
    00:00 +2°C° 0 mm 1 mps 661 mmHg 80%
    01:00 +2°C° 0 mm 1 mps 661 mmHg 78%
    02:00 +2°C° 0 mm 1 mps 661 mmHg 76%
    03:00 -1°C° 0 mm 2 mps 661 mmHg 74%
    04:00 -1°C° 0 mm 2 mps 661 mmHg 72%
    05:00 -1°C° 0 mm 2 mps 661 mmHg 71%
    06:00 -1°C° 0 mm 2 mps 661 mmHg 69%
    07:00 +1°C° 0 mm 2 mps 661 mmHg 66%
    08:00 +2°C° 0 mm 2 mps 661 mmHg 63%
    09:00 +4°C° 0 mm 2 mps 661 mmHg 59%
    10:00 +5°C° 0 mm 2 mps 661 mmHg 57%
    11:00 +6°C° 0 mm 2 mps 661 mmHg 54%
    12:00 +7°C° 0 mm 2 mps 661 mmHg 52%
    13:00 +8°C° 0 mm 2 mps 661 mmHg 52%
    14:00 +8°C° 0 mm 2 mps 660 mmHg 52%
    15:00 +8°C° 0 mm 2 mps 660 mmHg 52%
    16:00 +7°C° 0 mm 2 mps 660 mmHg 56%
    17:00 +6°C° 0 mm 2 mps 660 mmHg 60%
    18:00 +5°C° 0 mm 2 mps 660 mmHg 65%
    19:00 +4°C° 0 mm 2 mps 660 mmHg 66%
    20:00 +4°C° 0 mm 2 mps 660 mmHg 67%
    21:00 +3°C° 0 mm 2 mps 660 mmHg 68%
    22:00 +3°C° 0 mm 2 mps 659 mmHg 68%
    23:00 +3°C° 0 mm 2 mps 659 mmHg 69%

    26 February, Monday

    Time Temperature Precipitation Wind Pressure Humidity
    00:00 +2°C° 0 mm 2 mps 659 mmHg 69%
    01:00 +2°C° 0 mm 2 mps 659 mmHg 69%
    02:00 +2°C° 0 mm 2 mps 659 mmHg 70%
    03:00 +2°C° 0 mm 2 mps 659 mmHg 71%
    04:00 +2°C° 0.2 mm 2 mps 659 mmHg 72%
    05:00 +2°C° 0.2 mm 2 mps 659 mmHg 74%
    06:00 +2°C° 0.2 mm 2 mps 659 mmHg 75%
    07:00 +2°C° 0.2 mm 2 mps 659 mmHg 74%
    08:00 +3°C° 0.2 mm 2 mps 659 mmHg 73%
    09:00 +3°C° 0.2 mm 2 mps 659 mmHg 72%
    10:00 +5°C° 0.2 mm 1 mps 659 mmHg 70%
    11:00 +6°C° 0.2 mm 1 mps 659 mmHg 69%
    12:00 +6°C° 0.2 mm 1 mps 659 mmHg 68%
    13:00 +6°C° 0.3 mm 1 mps 659 mmHg 70%
    14:00 +5°C° 0.3 mm 2 mps 659 mmHg 73%
    15:00 +5°C° 0.3 mm 2 mps 659 mmHg 75%
    16:00 +4°C° 0.3 mm 2 mps 660 mmHg 79%
    17:00 +4°C° 0.3 mm 1 mps 660 mmHg 84%
    18:00 +3°C° 0.3 mm 1 mps 660 mmHg 88%
    19:00 +3°C° 0.1 mm 1 mps 660 mmHg 89%
    20:00 +2°C° 0.1 mm 1 mps 661 mmHg 90%
    21:00 +1°C° 0.1 mm 0 mps 661 mmHg 92%
    22:00 +2°C° 0 mm 1 mps 661 mmHg 90%
    23:00 +2°C° 0 mm 1 mps 661 mmHg 88%
    Show more